Location: Arbon
(43.0005°N, 0.7472°E)
Time: 22:50:45
(UTC+00:00)

Explorer 7 - Pass Details

Date: 04 December 2020
Orbit: 484 x 678 km, 50.3° (Epoch: 26 January)

Event Time Altitude Azimuth Distance (km) Brightness Sun altitude
Rises 23:54:14 0° 234° (SW) 2,993 - -69.2°
Reaches altitude 10° 23:56:37 10° 233° (SW) 2,065 - -69.2°
Maximum altitude 00:01:23 80° 147° (SSE) 651 - -69.1°
Drops below altitude 10° 00:05:56 10° 61° (ENE) 1,969 - -68.9°
Sets 00:08:10 0° 61° (ENE) 2,843 - -68.8°
